contact:dominique.lefevre@mio.osupytheas.fr, maurice.libes@osupytheas.fr, didier.mallarino@osupytheas.fr
Project:EMSO http://www.emso-fr.org/EMSO-France
Depth: 2436.0 m
Title:EMSO Ligure Ouest : Data MII capteur CSTAR
DateTime,Latitude,Longitude,Instrument_Serial,Reference_Counts,Signal_Counts,Corrected_Signal_raw_counts,Calculated_Beam_c_inverse_meters,Internal_thermistor_counts
DateTime,Latitude,Longitude,Instrument_Serial,Reference_Counts,Signal_Counts,Corrected_Signal_raw_counts,Calculated_Beam_c_inverse_meters,Internal_thermistor_counts
2021-11-20T00:02:29,42.805,6.029,CST-1368DR,5081,6658,14015,0.433,551
2021-11-20T00:05:31,42.805,6.029,CST-1368DR,5081,6654,14007,0.435,551
2021-11-20T00:08:32,42.805,6.029,CST-1368DR,5081,6653,14005,0.436,551
2021-11-20T00:11:34,42.805,6.029,CST-1368DR,5081,6651,14001,0.437,551
2021-11-20T00:14:36,42.805,6.029,CST-1368DR,5081,6627,13950,0.451,551
2021-11-20T00:17:37,42.805,6.029,CST-1368DR,5080,6609,13914,0.462,551
2021-11-20T00:20:39,42.805,6.029,CST-1368DR,5080,6586,13867,0.475,551
2021-11-20T00:23:40,42.805,6.029,CST-1368DR,5080,6568,13829,0.486,551
2021-11-20T00:26:42,42.805,6.029,CST-1368DR,5080,6570,13832,0.485,551
2021-11-20T00:29:43,42.805,6.029,CST-1368DR,5080,6611,13919,0.460,551
2021-11-20T00:32:45,42.805,6.029,CST-1368DR,5080,6623,13944,0.453,551
2021-11-20T00:35:47,42.805,6.029,CST-1368DR,5080,6626,13951,0.451,551
2021-11-20T00:38:48,42.805,6.029,CST-1368DR,5081,6643,13985,0.441,551
2021-11-20T00:41:50,42.805,6.029,CST-1368DR,5081,6647,13991,0.440,551
2021-11-20T00:44:51,42.805,6.029,CST-1368DR,5081,6648,13995,0.438,551
2021-11-20T00:47:53,42.805,6.029,CST-1368DR,5081,6659,14017,0.432,551
2021-11-20T00:50:55,42.805,6.029,CST-1368DR,5081,6659,14017,0.432,551
2021-11-20T00:53:56,42.805,6.029,CST-1368DR,5081,6658,14016,0.432,551
2021-11-20T00:56:58,42.805,6.029,CST-1368DR,5081,6659,14017,0.432,551
2021-11-20T00:59:59,42.805,6.029,CST-1368DR,5081,6657,14014,0.433,551
2021-11-20T01:03:01,42.805,6.029,CST-1368DR,5081,6660,14019,0.432,551
2021-11-20T01:06:02,42.805,6.029,CST-1368DR,5081,6660,14019,0.432,551
2021-11-20T01:09:04,42.805,6.029,CST-1368DR,5080,6659,14021,0.431,551
2021-11-20T01:12:06,42.805,6.029,CST-1368DR,5081,6660,14019,0.432,551
2021-11-20T01:15:07,42.805,6.029,CST-1368DR,5081,6659,14018,0.432,551
2021-11-20T01:18:09,42.805,6.029,CST-1368DR,5081,6659,14018,0.432,551
2021-11-20T01:21:10,42.805,6.029,CST-1368DR,5080,6659,14020,0.431,551
2021-11-20T01:24:12,42.805,6.029,CST-1368DR,5080,6660,14021,0.431,551
2021-11-20T01:27:14,42.805,6.029,CST-1368DR,5080,6659,14021,0.431,551
2021-11-20T01:30:15,42.805,6.029,CST-1368DR,5080,6659,14020,0.431,551
2021-11-20T01:33:17,42.805,6.029,CST-1368DR,5080,6658,14018,0.432,551
2021-11-20T01:36:18,42.805,6.029,CST-1368DR,5080,6659,14021,0.431,551
2021-11-20T01:39:20,42.805,6.029,CST-1368DR,5080,6659,14020,0.431,551
2021-11-20T01:42:21,42.805,6.029,CST-1368DR,5080,6659,14021,0.431,551
2021-11-20T01:45:23,42.805,6.029,CST-1368DR,5080,6659,14019,0.432,551
2021-11-20T01:48:25,42.805,6.029,CST-1368DR,5080,6659,14020,0.431,551
2021-11-20T01:51:26,42.805,6.029,CST-1368DR,5080,6658,14018,0.432,551
2021-11-20T01:54:28,42.805,6.029,CST-1368DR,5080,6659,14019,0.432,551
2021-11-20T01:57:29,42.805,6.029,CST-1368DR,5080,6659,14020,0.431,551
2021-11-20T02:00:31,42.805,6.029,CST-1368DR,5080,6659,14020,0.431,551
2021-11-20T02:03:32,42.805,6.029,CST-1368DR,5080,6659,14019,0.432,551
2021-11-20T02:06:34,42.805,6.029,CST-1368DR,5080,6659,14020,0.431,551
2021-11-20T02:09:36,42.805,6.029,CST-1368DR,5080,6659,14019,0.432,551
2021-11-20T02:12:37,42.805,6.029,CST-1368DR,5080,6658,14018,0.432,551
2021-11-20T02:15:39,42.805,6.029,CST-1368DR,5080,6658,14018,0.432,551
2021-11-20T02:18:40,42.805,6.029,CST-1368DR,5080,6659,14020,0.431,551
2021-11-20T02:21:42,42.805,6.029,CST-1368DR,5080,6658,14018,0.432,551
2021-11-20T02:24:44,42.805,6.029,CST-1368DR,5080,6658,14018,0.432,551
2021-11-20T02:27:45,42.805,6.029,CST-1368DR,5080,6657,14017,0.432,551
2021-11-20T02:30:47,42.805,6.029,CST-1368DR,5080,6658,14017,0.432,551
2021-11-20T02:33:48,42.805,6.029,CST-1368DR,5080,6659,14020,0.431,551
2021-11-20T02:36:50,42.805,6.029,CST-1368DR,5080,6658,14018,0.432,551
2021-11-20T02:39:51,42.805,6.029,CST-1368DR,5080,6659,14020,0.431,551
2021-11-20T02:42:53,42.805,6.029,CST-1368DR,5080,6659,14020,0.431,551
2021-11-20T02:45:55,42.805,6.029,CST-1368DR,5080,6658,14018,0.432,551
2021-11-20T02:48:56,42.805,6.029,CST-1368DR,5080,6659,14020,0.431,551
2021-11-20T02:51:58,42.805,6.029,CST-1368DR,5080,6659,14020,0.431,551
2021-11-20T02:54:59,42.805,6.029,CST-1368DR,5080,6658,14018,0.432,551
2021-11-20T02:58:01,42.805,6.029,CST-1368DR,5080,6659,14020,0.431,551
2021-11-20T03:01:02,42.805,6.029,CST-1368DR,5080,6659,14019,0.432,551
2021-11-20T03:04:04,42.805,6.029,CST-1368DR,5080,6658,14018,0.432,551
2021-11-20T03:07:06,42.805,6.029,CST-1368DR,5080,6658,14017,0.432,551
2021-11-20T03:10:07,42.805,6.029,CST-1368DR,5080,6652,14006,0.435,551
2021-11-20T03:13:09,42.805,6.029,CST-1368DR,5080,6643,13986,0.441,551
2021-11-20T03:16:10,42.805,6.029,CST-1368DR,5080,6633,13966,0.447,551
2021-11-20T03:19:12,42.805,6.029,CST-1368DR,5079,6611,13921,0.460,551
2021-11-20T03:22:14,42.805,6.029,CST-1368DR,5079,6613,13925,0.458,551
2021-11-20T03:25:15,42.805,6.029,CST-1368DR,5079,6585,13867,0.475,551
2021-11-20T03:28:17,42.805,6.029,CST-1368DR,5079,6623,13947,0.452,551
2021-11-20T03:31:18,42.805,6.029,CST-1368DR,5079,6549,13790,0.497,551
2021-11-20T03:34:20,42.805,6.029,CST-1368DR,5079,6563,13821,0.488,551
2021-11-20T03:37:21,42.805,6.029,CST-1368DR,5079,6571,13838,0.484,551
2021-11-20T03:40:23,42.805,6.029,CST-1368DR,5079,6594,13885,0.470,551
2021-11-20T03:43:25,42.805,6.029,CST-1368DR,5079,6563,13820,0.489,551
2021-11-20T03:46:26,42.805,6.029,CST-1368DR,5078,6531,13756,0.507,551
2021-11-20T03:49:28,42.805,6.029,CST-1368DR,5079,6572,13840,0.483,551
2021-11-20T03:52:29,42.805,6.029,CST-1368DR,5078,6533,13760,0.506,551
2021-11-20T03:55:31,42.805,6.029,CST-1368DR,5078,6529,13752,0.508,551
2021-11-20T03:58:32,42.805,6.029,CST-1368DR,5078,6527,13747,0.510,551
2021-11-20T04:01:34,42.805,6.029,CST-1368DR,5079,6568,13831,0.486,551
2021-11-20T04:04:36,42.805,6.029,CST-1368DR,5079,6598,13895,0.467,551
2021-11-20T04:07:37,42.805,6.029,CST-1368DR,5079,6611,13921,0.460,551
2021-11-20T04:10:39,42.805,6.029,CST-1368DR,5079,6629,13959,0.449,551
2021-11-20T04:13:40,42.805,6.029,CST-1368DR,5079,6644,13992,0.439,551
2021-11-20T04:16:42,42.805,6.029,CST-1368DR,5079,6652,14009,0.434,551
2021-11-20T04:19:44,42.805,6.029,CST-1368DR,5079,6656,14016,0.432,551
2021-11-20T04:22:45,42.805,6.029,CST-1368DR,5079,6657,14018,0.432,551
2021-11-20T04:25:47,42.805,6.029,CST-1368DR,5079,6657,14019,0.432,551
2021-11-20T04:28:48,42.805,6.029,CST-1368DR,5079,6657,14018,0.432,551
2021-11-20T04:31:50,42.805,6.029,CST-1368DR,5079,6656,14016,0.432,551
2021-11-20T04:34:51,42.805,6.029,CST-1368DR,5080,6656,14015,0.433,551
2021-11-20T04:37:53,42.805,6.029,CST-1368DR,5079,6657,14019,0.432,551
2021-11-20T04:40:55,42.805,6.029,CST-1368DR,5079,6658,14020,0.431,551
2021-11-20T04:43:56,42.805,6.029,CST-1368DR,5079,6658,14021,0.431,551
2021-11-20T04:46:58,42.805,6.029,CST-1368DR,5079,6658,14020,0.431,551
2021-11-20T04:49:59,42.805,6.029,CST-1368DR,5079,6657,14019,0.432,551
2021-11-20T04:53:01,42.805,6.029,CST-1368DR,5079,6658,14020,0.431,551
2021-11-20T04:56:02,42.805,6.029,CST-1368DR,5079,6658,14020,0.431,551
2021-11-20T04:59:04,42.805,6.029,CST-1368DR,5079,6657,14019,0.432,551
2021-11-20T05:02:06,42.805,6.029,CST-1368DR,5079,6657,14018,0.432,551
2021-11-20T05:05:07,42.805,6.029,CST-1368DR,5079,6657,14019,0.432,551
2021-11-20T05:08:09,42.805,6.029,CST-1368DR,5079,6657,14019,0.432,551
2021-11-20T05:11:10,42.805,6.029,CST-1368DR,5079,6657,14019,0.432,551
2021-11-20T05:14:12,42.805,6.029,CST-1368DR,5079,6657,14019,0.432,551
2021-11-20T05:17:14,42.805,6.029,CST-1368DR,5079,6657,14019,0.432,551
2021-11-20T05:20:15,42.805,6.029,CST-1368DR,5079,6657,14019,0.432,551
2021-11-20T05:23:17,42.805,6.029,CST-1368DR,5079,6657,14019,0.432,551
2021-11-20T05:26:18,42.805,6.029,CST-1368DR,5079,6658,14020,0.431,551
2021-11-20T05:29:20,42.805,6.029,CST-1368DR,5079,6657,14019,0.432,551
2021-11-20T05:32:21,42.805,6.029,CST-1368DR,5079,6656,14017,0.432,551
2021-11-20T05:35:23,42.805,6.029,CST-1368DR,5079,6658,14020,0.431,551
2021-11-20T05:38:25,42.805,6.029,CST-1368DR,5079,6658,14020,0.431,551
2021-11-20T05:41:26,42.805,6.029,CST-1368DR,5079,6658,14020,0.431,551
2021-11-20T05:44:28,42.805,6.029,CST-1368DR,5079,6658,14020,0.431,551
2021-11-20T05:47:29,42.805,6.029,CST-1368DR,5079,6659,14022,0.431,551
2021-11-20T05:50:31,42.805,6.029,CST-1368DR,5079,6658,14020,0.431,551
2021-11-20T05:53:32,42.805,6.029,CST-1368DR,5079,6658,14020,0.431,551
2021-11-20T05:56:34,42.805,6.029,CST-1368DR,5079,6658,14020,0.431,551
2021-11-20T05:59:36,42.805,6.029,CST-1368DR,5079,6659,14022,0.431,551
2021-11-20T06:02:37,42.805,6.029,CST-1368DR,5079,6657,14019,0.432,551
2021-11-20T06:05:39,42.805,6.029,CST-1368DR,5079,6657,14018,0.432,551
2021-11-20T06:08:40,42.805,6.029,CST-1368DR,5079,6658,14021,0.431,551
2021-11-20T06:11:42,42.805,6.029,CST-1368DR,5079,6657,14018,0.432,550
2021-11-20T06:14:44,42.805,6.029,CST-1368DR,5079,6658,14020,0.431,551
2021-11-20T06:17:45,42.805,6.029,CST-1368DR,5079,6657,14019,0.432,551
2021-11-20T06:20:47,42.805,6.029,CST-1368DR,5079,6658,14021,0.431,551
2021-11-20T06:23:48,42.805,6.029,CST-1368DR,5079,6658,14020,0.431,550
2021-11-20T06:26:50,42.805,6.029,CST-1368DR,5079,6657,14019,0.432,551
2021-11-20T06:29:51,42.805,6.029,CST-1368DR,5079,6657,14019,0.432,551
2021-11-20T06:32:53,42.805,6.029,CST-1368DR,5079,6658,14020,0.431,551
2021-11-20T06:35:55,42.805,6.029,CST-1368DR,5079,6658,14020,0.431,551
2021-11-20T06:38:56,42.805,6.029,CST-1368DR,5079,6656,14017,0.432,551
2021-11-20T06:41:58,42.805,6.029,CST-1368DR,5079,6656,14017,0.432,551
2021-11-20T06:44:59,42.805,6.029,CST-1368DR,5079,6657,14018,0.432,551
2021-11-20T06:48:01,42.805,6.029,CST-1368DR,5079,6658,14020,0.431,551
2021-11-20T06:51:03,42.805,6.029,CST-1368DR,5079,6657,14019,0.432,551
2021-11-20T06:54:04,42.805,6.029,CST-1368DR,5079,6656,14017,0.432,551
2021-11-20T06:57:06,42.805,6.029,CST-1368DR,5079,6657,14018,0.432,551
2021-11-20T07:00:07,42.805,6.029,CST-1368DR,5079,6656,14017,0.432,551
2021-11-20T07:03:09,42.805,6.029,CST-1368DR,5079,6640,13983,0.442,551
2021-11-20T07:06:10,42.805,6.029,CST-1368DR,5078,6565,13828,0.486,551
2021-11-20T07:09:12,42.805,6.029,CST-1368DR,5079,6649,14002,0.436,551
2021-11-20T07:12:14,42.805,6.029,CST-1368DR,5079,6656,14017,0.432,551
2021-11-20T07:15:15,42.805,6.029,CST-1368DR,5079,6656,14016,0.432,551
2021-11-20T07:18:17,42.805,6.029,CST-1368DR,5079,6657,14018,0.432,551
2021-11-20T07:21:18,42.805,6.029,CST-1368DR,5079,6658,14020,0.431,551
2021-11-20T07:24:20,42.805,6.029,CST-1368DR,5079,6657,14019,0.432,551
2021-11-20T07:27:22,42.805,6.029,CST-1368DR,5079,6657,14018,0.432,551
2021-11-20T07:30:23,42.805,6.029,CST-1368DR,5079,6657,14018,0.432,551
2021-11-20T07:33:25,42.805,6.029,CST-1368DR,5079,6658,14020,0.431,551
2021-11-20T07:36:26,42.805,6.029,CST-1368DR,5078,6656,14019,0.432,551
2021-11-20T07:39:28,42.805,6.029,CST-1368DR,5078,6656,14020,0.431,551
2021-11-20T07:42:29,42.805,6.029,CST-1368DR,5078,6657,14022,0.431,551
2021-11-20T07:45:31,42.805,6.029,CST-1368DR,5078,6656,14020,0.431,551
2021-11-20T07:48:33,42.805,6.029,CST-1368DR,5078,6656,14020,0.431,551
2021-11-20T07:51:34,42.805,6.029,CST-1368DR,5078,6657,14020,0.431,551
2021-11-20T07:54:36,42.805,6.029,CST-1368DR,5078,6655,14017,0.432,551
2021-11-20T07:57:37,42.805,6.029,CST-1368DR,5078,6656,14020,0.431,551
2021-11-20T08:00:39,42.805,6.029,CST-1368DR,5078,6657,14021,0.431,551
2021-11-20T08:03:40,42.805,6.029,CST-1368DR,5078,6657,14021,0.431,551
2021-11-20T08:06:42,42.805,6.029,CST-1368DR,5078,6656,14020,0.431,551
2021-11-20T08:09:44,42.805,6.029,CST-1368DR,5078,6657,14021,0.431,551
2021-11-20T08:12:45,42.805,6.029,CST-1368DR,5078,6655,14016,0.432,551
2021-11-20T08:15:47,42.805,6.029,CST-1368DR,5078,6657,14020,0.431,551
2021-11-20T08:18:48,42.805,6.029,CST-1368DR,5078,6656,14018,0.432,551
2021-11-20T08:21:50,42.805,6.029,CST-1368DR,5078,6657,14022,0.431,551
2021-11-20T08:24:52,42.805,6.029,CST-1368DR,5078,6657,14020,0.431,551
2021-11-20T08:27:53,42.805,6.029,CST-1368DR,5078,6656,14020,0.431,551
2021-11-20T08:30:55,42.805,6.029,CST-1368DR,5078,6655,14018,0.432,551
2021-11-20T08:33:56,42.805,6.029,CST-1368DR,5078,6656,14020,0.431,551
2021-11-20T08:36:58,42.805,6.029,CST-1368DR,5078,6657,14021,0.431,551
2021-11-20T08:39:59,42.805,6.029,CST-1368DR,5078,6657,14020,0.431,551
2021-11-20T08:43:01,42.805,6.029,CST-1368DR,5078,6656,14018,0.432,551
2021-11-20T08:46:03,42.805,6.029,CST-1368DR,5078,6657,14021,0.431,551
2021-11-20T08:49:04,42.805,6.029,CST-1368DR,5078,6656,14019,0.432,551
2021-11-20T08:52:06,42.805,6.029,CST-1368DR,5078,6656,14019,0.432,551
2021-11-20T08:55:07,42.805,6.029,CST-1368DR,5078,6656,14020,0.431,551
2021-11-20T08:58:09,42.805,6.029,CST-1368DR,5078,6656,14019,0.432,551
2021-11-20T09:01:11,42.805,6.029,CST-1368DR,5078,6656,14019,0.432,551
2021-11-20T09:04:12,42.805,6.029,CST-1368DR,5078,6656,14020,0.431,551
2021-11-20T09:07:14,42.805,6.029,CST-1368DR,5078,6656,14018,0.432,551
2021-11-20T09:10:15,42.805,6.029,CST-1368DR,5078,6655,14017,0.432,551
2021-11-20T09:13:17,42.805,6.029,CST-1368DR,5078,6656,14018,0.432,551
2021-11-20T09:16:18,42.805,6.029,CST-1368DR,5078,6656,14019,0.432,551
2021-11-20T09:19:20,42.805,6.029,CST-1368DR,5078,6656,14019,0.432,551
2021-11-20T09:22:22,42.805,6.029,CST-1368DR,5078,6656,14019,0.432,551
2021-11-20T09:25:23,42.805,6.029,CST-1368DR,5078,6653,14012,0.434,551
2021-11-20T09:28:25,42.805,6.029,CST-1368DR,5078,6638,13981,0.442,551
2021-11-20T09:31:26,42.805,6.029,CST-1368DR,5078,6636,13976,0.444,551
2021-11-20T09:34:28,42.805,6.029,CST-1368DR,5077,6559,13817,0.490,551
2021-11-20T09:37:29,42.805,6.029,CST-1368DR,5075,6308,13293,0.644,551
2021-11-20T09:40:31,42.805,6.029,CST-1368DR,5074,6217,13105,0.701,551
2021-11-20T09:43:33,42.805,6.029,CST-1368DR,5073,6143,12950,0.749,551
2021-11-20T09:46:34,42.805,6.029,CST-1368DR,5073,6160,12987,0.737,551
2021-11-20T09:49:36,42.805,6.029,CST-1368DR,5073,6168,13003,0.732,551
2021-11-20T09:52:37,42.805,6.029,CST-1368DR,5074,6272,13220,0.666,551
2021-11-20T09:55:39,42.805,6.029,CST-1368DR,5074,6272,13219,0.667,551
2021-11-20T09:58:41,42.805,6.029,CST-1368DR,5075,6419,13528,0.574,551
2021-11-20T10:01:42,42.805,6.029,CST-1368DR,5077,6586,13873,0.473,551
2021-11-20T10:04:44,42.805,6.029,CST-1368DR,5077,6548,13793,0.497,551
2021-11-20T10:07:45,42.805,6.029,CST-1368DR,5077,6569,13839,0.483,551
2021-11-20T10:10:47,42.805,6.029,CST-1368DR,5077,6610,13926,0.458,551
2021-11-20T10:13:48,42.805,6.029,CST-1368DR,5078,6653,14014,0.433,551
2021-11-20T10:16:50,42.805,6.029,CST-1368DR,5078,6651,14009,0.434,551
2021-11-20T10:19:52,42.805,6.029,CST-1368DR,5078,6653,14012,0.434,551
2021-11-20T10:22:53,42.805,6.029,CST-1368DR,5078,6652,14011,0.434,551
2021-11-20T10:25:55,42.805,6.029,CST-1368DR,5078,6654,14015,0.433,551
2021-11-20T10:28:56,42.805,6.029,CST-1368DR,5078,6656,14019,0.432,551
2021-11-20T10:31:58,42.805,6.029,CST-1368DR,5078,6655,14018,0.432,551
2021-11-20T10:34:59,42.805,6.029,CST-1368DR,5078,6654,14014,0.433,551
2021-11-20T10:38:01,42.805,6.029,CST-1368DR,5078,6656,14018,0.432,551
2021-11-20T10:41:03,42.805,6.029,CST-1368DR,5078,6655,14018,0.432,551
2021-11-20T10:44:04,42.805,6.029,CST-1368DR,5078,6655,14017,0.432,551
2021-11-20T10:47:06,42.805,6.029,CST-1368DR,5078,6654,14016,0.432,551
2021-11-20T10:50:07,42.805,6.029,CST-1368DR,5078,6656,14019,0.432,551
2021-11-20T10:53:09,42.805,6.029,CST-1368DR,5078,6653,14012,0.434,550
2021-11-20T10:56:11,42.805,6.029,CST-1368DR,5078,6655,14018,0.432,551
2021-11-20T10:59:12,42.805,6.029,CST-1368DR,5078,6655,14016,0.432,551
2021-11-20T11:02:14,42.805,6.029,CST-1368DR,5078,6655,14018,0.432,551
2021-11-20T11:05:15,42.805,6.029,CST-1368DR,5078,6654,14016,0.432,551
2021-11-20T11:08:17,42.805,6.029,CST-1368DR,5078,6655,14016,0.432,551
2021-11-20T11:11:18,42.805,6.029,CST-1368DR,5077,6655,14020,0.431,551
2021-11-20T11:14:20,42.805,6.029,CST-1368DR,5077,6652,14014,0.433,551
2021-11-20T11:17:22,42.805,6.029,CST-1368DR,5077,6655,14020,0.431,551
2021-11-20T11:20:23,42.805,6.029,CST-1368DR,5077,6655,14019,0.432,551
2021-11-20T11:23:25,42.805,6.029,CST-1368DR,5077,6654,14018,0.432,551
2021-11-20T11:26:26,42.805,6.029,CST-1368DR,5077,6654,14018,0.432,551
2021-11-20T11:29:28,42.805,6.029,CST-1368DR,5077,6656,14021,0.431,551
2021-11-20T11:32:30,42.805,6.029,CST-1368DR,5077,6655,14020,0.431,551
2021-11-20T11:35:31,42.805,6.029,CST-1368DR,5077,6655,14020,0.431,551
2021-11-20T11:38:33,42.805,6.029,CST-1368DR,5077,6652,14014,0.433,551
2021-11-20T11:41:34,42.805,6.029,CST-1368DR,5077,6655,14020,0.431,551
2021-11-20T11:44:36,42.805,6.029,CST-1368DR,5077,6654,14018,0.432,551
2021-11-20T11:47:37,42.805,6.029,CST-1368DR,5077,6654,14018,0.432,551
2021-11-20T11:55:06,42.805,6.029,CST-1368DR,5077,6654,14018,0.432,551
2021-11-20T11:58:08,42.805,6.029,CST-1368DR,5077,6656,14021,0.431,551
2021-11-20T12:01:09,42.805,6.029,CST-1368DR,5077,6655,14019,0.432,551
2021-11-20T12:04:11,42.805,6.029,CST-1368DR,5077,6655,14020,0.431,551
2021-11-20T12:07:13,42.805,6.029,CST-1368DR,5077,6654,14018,0.432,551
2021-11-20T12:10:14,42.805,6.029,CST-1368DR,5077,6655,14020,0.431,551
2021-11-20T12:13:16,42.805,6.029,CST-1368DR,5077,6656,14021,0.431,551
2021-11-20T12:16:17,42.805,6.029,CST-1368DR,5077,6655,14020,0.431,551
2021-11-20T12:19:19,42.805,6.029,CST-1368DR,5077,6655,14019,0.432,551
2021-11-20T12:22:20,42.805,6.029,CST-1368DR,5077,6654,14018,0.432,551
2021-11-20T12:25:22,42.805,6.029,CST-1368DR,5077,6647,14004,0.436,551
2021-11-20T12:28:24,42.805,6.029,CST-1368DR,5077,6656,14021,0.431,551
2021-11-20T12:31:25,42.805,6.029,CST-1368DR,5077,6655,14020,0.431,551
2021-11-20T12:34:27,42.805,6.029,CST-1368DR,5077,6656,14021,0.431,551
2021-11-20T12:37:28,42.805,6.029,CST-1368DR,5077,6655,14020,0.431,551
2021-11-20T12:40:30,42.805,6.029,CST-1368DR,5077,6655,14020,0.431,551
2021-11-20T12:43:32,42.805,6.029,CST-1368DR,5077,6654,14018,0.432,551
2021-11-20T12:46:33,42.805,6.029,CST-1368DR,5077,6654,14018,0.432,551
2021-11-20T12:49:35,42.805,6.029,CST-1368DR,5077,6655,14020,0.431,551
2021-11-20T12:52:36,42.805,6.029,CST-1368DR,5077,6655,14020,0.431,551
2021-11-20T12:55:38,42.805,6.029,CST-1368DR,5077,6655,14019,0.432,551
2021-11-20T12:58:39,42.805,6.029,CST-1368DR,5077,6654,14018,0.432,551
2021-11-20T13:01:41,42.805,6.029,CST-1368DR,5077,6655,14020,0.431,551
2021-11-20T13:04:43,42.805,6.029,CST-1368DR,5077,6654,14018,0.432,551
2021-11-20T13:07:44,42.805,6.029,CST-1368DR,5077,6650,14009,0.434,551
2021-11-20T13:10:46,42.805,6.029,CST-1368DR,5077,6630,13967,0.446,551
2021-11-20T13:13:47,42.805,6.029,CST-1368DR,5077,6634,13975,0.444,551
2021-11-20T13:16:49,42.805,6.029,CST-1368DR,5077,6613,13931,0.457,551
2021-11-20T13:19:50,42.805,6.029,CST-1368DR,5076,6583,13870,0.474,551
2021-11-20T13:22:52,42.805,6.029,CST-1368DR,5076,6607,13922,0.459,551
2021-11-20T13:25:54,42.805,6.029,CST-1368DR,5076,6553,13807,0.492,551
2021-11-20T13:28:55,42.805,6.029,CST-1368DR,5076,6562,13825,0.487,551
2021-11-20T13:31:57,42.805,6.029,CST-1368DR,5076,6535,13769,0.504,551
2021-11-20T13:34:58,42.805,6.029,CST-1368DR,5076,6531,13761,0.506,551
2021-11-20T13:38:00,42.805,6.029,CST-1368DR,5076,6545,13791,0.497,551
2021-11-20T13:41:02,42.805,6.029,CST-1368DR,5076,6539,13778,0.501,551
2021-11-20T13:44:03,42.805,6.029,CST-1368DR,5075,6463,13620,0.547,551
2021-11-20T13:47:05,42.805,6.029,CST-1368DR,5075,6467,13629,0.544,551
2021-11-20T13:50:06,42.805,6.029,CST-1368DR,5075,6524,13749,0.509,551
2021-11-20T13:53:08,42.805,6.029,CST-1368DR,5075,6473,13642,0.541,551
2021-11-20T13:56:09,42.805,6.029,CST-1368DR,5075,6470,13634,0.543,551
2021-11-20T13:59:11,42.805,6.029,CST-1368DR,5077,6627,13960,0.448,551
2021-11-20T14:02:13,42.805,6.029,CST-1368DR,5076,6600,13906,0.464,551
2021-11-20T14:05:14,42.805,6.029,CST-1368DR,5077,6628,13964,0.447,551
2021-11-20T14:08:16,42.805,6.029,CST-1368DR,5077,6636,13980,0.443,551
2021-11-20T14:11:17,42.805,6.029,CST-1368DR,5077,6636,13979,0.443,551
2021-11-20T14:14:19,42.805,6.029,CST-1368DR,5077,6635,13978,0.443,551
2021-11-20T14:17:21,42.805,6.029,CST-1368DR,5077,6649,14007,0.435,551
2021-11-20T14:20:22,42.805,6.029,CST-1368DR,5077,6651,14011,0.434,551
2021-11-20T14:23:24,42.805,6.029,CST-1368DR,5077,6651,14010,0.434,551
2021-11-20T14:26:25,42.805,6.029,CST-1368DR,5077,6653,14015,0.433,551
2021-11-20T14:29:27,42.805,6.029,CST-1368DR,5076,6648,14008,0.435,551
2021-11-20T14:32:28,42.805,6.029,CST-1368DR,5076,6642,13996,0.438,551
2021-11-20T14:35:30,42.805,6.029,CST-1368DR,5076,6633,13976,0.444,551
2021-11-20T14:38:32,42.805,6.029,CST-1368DR,5076,6625,13959,0.449,551
2021-11-20T14:41:33,42.805,6.029,CST-1368DR,5076,6633,13977,0.444,551
2021-11-20T14:44:35,42.805,6.029,CST-1368DR,5076,6576,13856,0.478,551
2021-11-20T14:47:36,42.805,6.029,CST-1368DR,5075,6549,13802,0.494,551
2021-11-20T14:50:38,42.805,6.029,CST-1368DR,5075,6453,13599,0.553,551
2021-11-20T14:53:39,42.805,6.029,CST-1368DR,5074,6399,13487,0.586,551
2021-11-20T14:56:41,42.805,6.029,CST-1368DR,5074,6372,13431,0.603,551
2021-11-20T14:59:43,42.805,6.029,CST-1368DR,5074,6393,13476,0.590,551
2021-11-20T15:02:44,42.805,6.029,CST-1368DR,5073,6295,13271,0.651,551
2021-11-20T15:05:46,42.805,6.029,CST-1368DR,5071,6114,12895,0.766,551
2021-11-20T15:08:47,42.805,6.029,CST-1368DR,5070,6026,12711,0.823,551
2021-11-20T15:11:49,42.805,6.029,CST-1368DR,5071,6080,12823,0.788,551
2021-11-20T15:14:51,42.805,6.029,CST-1368DR,5071,6123,12913,0.760,551
2021-11-20T15:17:52,42.805,6.029,CST-1368DR,5071,6069,12800,0.795,551
2021-11-20T15:20:54,42.805,6.029,CST-1368DR,5071,6143,12955,0.747,551
2021-11-20T15:23:55,42.805,6.029,CST-1368DR,5073,6285,13249,0.657,551
2021-11-20T15:26:57,42.805,6.029,CST-1368DR,5071,6137,12944,0.751,551
2021-11-20T15:29:58,42.805,6.029,CST-1368DR,5071,6086,12836,0.784,551
2021-11-20T15:33:00,42.805,6.029,CST-1368DR,5072,6252,13183,0.677,551
2021-11-20T15:36:02,42.805,6.029,CST-1368DR,5073,6273,13226,0.664,551
2021-11-20T15:39:03,42.805,6.029,CST-1368DR,5072,6212,13099,0.703,551
2021-11-20T15:42:05,42.805,6.029,CST-1368DR,5074,6377,13441,0.600,551
2021-11-20T15:45:06,42.805,6.029,CST-1368DR,5075,6515,13729,0.515,551
2021-11-20T15:48:08,42.805,6.029,CST-1368DR,5076,6583,13870,0.474,551
2021-11-20T15:51:10,42.805,6.029,CST-1368DR,5076,6612,13932,0.456,551
2021-11-20T15:54:11,42.805,6.029,CST-1368DR,5076,6635,13980,0.443,551
2021-11-20T15:57:13,42.805,6.029,CST-1368DR,5076,6639,13989,0.440,551
2021-11-20T16:00:14,42.805,6.029,CST-1368DR,5076,6644,13998,0.438,551
2021-11-20T16:03:16,42.805,6.029,CST-1368DR,5076,6647,14005,0.436,551
2021-11-20T16:06:17,42.805,6.029,CST-1368DR,5076,6650,14011,0.434,551
2021-11-20T16:09:19,42.805,6.029,CST-1368DR,5076,6650,14011,0.434,551
2021-11-20T16:12:21,42.805,6.029,CST-1368DR,5076,6651,14013,0.433,551
2021-11-20T16:15:22,42.805,6.029,CST-1368DR,5076,6650,14011,0.434,551
2021-11-20T16:18:24,42.805,6.029,CST-1368DR,5076,6649,14010,0.434,551
2021-11-20T16:21:25,42.805,6.029,CST-1368DR,5076,6650,14011,0.434,551
2021-11-20T16:24:27,42.805,6.029,CST-1368DR,5076,6650,14011,0.434,551
2021-11-20T16:27:29,42.805,6.029,CST-1368DR,5076,6649,14010,0.434,551
2021-11-20T16:30:30,42.805,6.029,CST-1368DR,5076,6650,14012,0.434,551
2021-11-20T16:33:32,42.805,6.029,CST-1368DR,5076,6651,14014,0.433,551
2021-11-20T16:36:33,42.805,6.029,CST-1368DR,5076,6650,14011,0.434,551
2021-11-20T16:39:35,42.805,6.029,CST-1368DR,5076,6650,14011,0.434,551
2021-11-20T16:42:36,42.805,6.029,CST-1368DR,5076,6651,14014,0.433,551
2021-11-20T16:45:38,42.805,6.029,CST-1368DR,5076,6651,14015,0.433,551
2021-11-20T16:48:40,42.805,6.029,CST-1368DR,5076,6651,14014,0.433,551
2021-11-20T16:51:41,42.805,6.029,CST-1368DR,5076,6651,14013,0.433,551
2021-11-20T16:54:43,42.805,6.029,CST-1368DR,5076,6651,14015,0.433,551
2021-11-20T16:57:44,42.805,6.029,CST-1368DR,5076,6651,14014,0.433,551